Mather AFB, CA

1:30 AM PST on November 19, 2017 (GMT -0800)
Mather

Weather History for KMHR - January, 2014

Change the Weather History Date:

Tuesday, January 28, 2014

  Actual Average Record
Temperature  
Mean Temperature 57 °F -  
Max Temperature 68 °F 53 °F 68 °F (1997)
Min Temperature 46 °F 38 °F 28 °F (2013)
Degree Days  
Heating Degree Days 8    
Growing Degree Days 7 (Base 50)    
Moisture  
Dew Point 40 °F    
Average Humidity 57    
Maximum Humidity 87    
Minimum Humidity 33    
Precipitation  
Precipitation 0.00 in - - ()
Sea Level Pressure  
Sea Level Pressure 30.20 in    
Wind  
Wind Speed 1 mph (SE)    
Max Wind Speed 6 mph    
Max Gust Speed -    
Visibility 10 miles    
Events      
Averages and records for this station are not official NWS values.
T = Trace of Precipitation, MM = Missing Value Source: NWS Daily Summary

Daily Weather History Graph

Daily Weather History Graph

Search for Another Location

Airport or City:

Trip Planner

Search our weather history database for the weather conditions in past years. The results will help you decide how hot, cold, wet, or windy it might be!

Date:

Astronomy

Jan. 28, 2014 Rise Set
Actual Time 7:13 AM PST 5:22 PM PST
Civil Twilight 6:45 AM PST 5:51 PM PST
Nautical Twilight 6:13 AM PST 6:23 PM PST
Astronomical Twilight 5:42 AM PST 6:54 PM PST
Moon 5:00 AM PST (1/28) 3:19 PM PST (1/28)
Length of Visible Light 11h 05m
Length of Day
10h 08m
Waning Crescent, 6% of the Moon is Illuminated
Jan 28
Waning Crescent
Jan 30
New
Feb 6
First Quarter
Feb 14
Full
Feb 22
Last Quarter

Hourly Weather History & Observations

Time (PST) Temp. Dew Point Humidity Pressure Visibility Wind Dir Wind Speed Gust Speed Precip Events Conditions
3:45 AM 48.2 °F 37.4 °F 66% 30.19 in 10.0 mi Calm Calm - N/A   Overcast
3:55 AM 46.4 °F 37.4 °F 71% 30.19 in 10.0 mi Calm Calm - N/A   Mostly Cloudy
4:48 AM 48.2 °F 37.4 °F 66% 30.17 in 10.0 mi ESE 5.8 mph - N/A   Overcast
5:48 AM 48.2 °F 37.4 °F 66% 30.19 in 10.0 mi Calm Calm - N/A   Overcast
6:46 AM 46.4 °F 37.4 °F 71% 30.22 in 10.0 mi Calm Calm - N/A   Mostly Cloudy
7:46 AM 46.4 °F 37.4 °F 71% 30.22 in 10.0 mi Calm Calm - N/A   Mostly Cloudy
8:46 AM 53.6 °F 39.2 °F 58% 30.22 in 10.0 mi SSE 4.6 mph - N/A   Scattered Clouds
9:45 AM 57.2 °F 41.0 °F 55% 30.24 in 10.0 mi Calm Calm - N/A   Mostly Cloudy
10:45 AM 57.2 °F 42.8 °F 59% 30.25 in 10.0 mi Calm Calm - N/A   Mostly Cloudy
11:46 AM 60.8 °F 42.8 °F 52% 30.24 in 10.0 mi Calm Calm - N/A   Mostly Cloudy
12:46 PM 62.6 °F 42.8 °F 48% 30.20 in 10.0 mi Calm Calm - N/A   Mostly Cloudy
1:45 PM 66.2 °F 41.0 °F 40% 30.17 in 10.0 mi Calm Calm - N/A   Mostly Cloudy
2:45 PM 66.2 °F 39.2 °F 37% 30.16 in 10.0 mi Calm Calm - N/A   Mostly Cloudy
3:46 PM 68.0 °F 37.4 °F 33% 30.18 in 10.0 mi Calm Calm - N/A   Mostly Cloudy
4:45 PM 66.2 °F 37.4 °F 35% 30.17 in 10.0 mi Calm Calm - N/A   Mostly Cloudy
5:45 PM 62.6 °F 35.6 °F 37% 30.17 in 10.0 mi Calm Calm - N/A   Scattered Clouds
6:55 PM 59.0 °F 35.6 °F 42% 30.17 in 10.0 mi Calm Calm - N/A   Scattered Clouds
7:45 PM 55.4 °F 37.4 °F 51% 30.18 in 10.0 mi Calm Calm - N/A   Scattered Clouds
8:50 PM 55.4 °F 42.8 °F 63% 30.19 in 10.0 mi South 5.8 mph - N/A   Scattered Clouds
9:45 PM 53.6 °F 48.2 °F 82% 30.19 in 10.0 mi Calm Calm - N/A   Scattered Clouds
10:55 PM 48.2 °F 44.6 °F 87% 30.19 in 10.0 mi East 5.8 mph - N/A   Scattered Clouds